Regional Weather Roundup
Issued by NWS

Home | Current Version | Previous Version | Graphics & Text | Print | Product List | Glossary Off
Versions: 1 2 3 4 5 6 7 8 9 10 11 12 13 14 15 16 17 18 19 20 21 22 23 24 25 26 27 28 29 30 31 32 33 34 35 36 37 38 39 40 41 42 43 44 45 46 47 48 49 50

000
ASUS43 KMKX 010720
RWRWI

WISCONSIN REGIONAL WEATHER ROUNDUP
NATIONAL WEATHER SERVICE MILWAUKEE/SULLIVAN WI
100 AM CST SUN FEB 01 2015

NOTE: "FAIR" INDICATES FEW OR NO CLOUDS BELOW 12,000 FEET WITH NO
SIGNIFICANT WEATHER AND/OR OBSTRUCTIONS TO VISIBILITY.

WIZ001-002-006>008-014>016-023>028-010800-
NORTHWEST WISCONSIN

CITY           SKY/WX    TMP DP  RH WIND       PRES   REMARKS
SUPERIOR ARPT  CLOUDY     9   1  72 NE12      30.38S WCI  -6
ASHLAND        CLOUDY    13   8  81 E9        30.35S WCI   1
HAYWARD        CLOUDY    13   2  61 NE10      30.29S WCI   0
SIREN          CLOUDY    14   6  69 NE10      30.29F WCI   1
CUMBERLAND     CLOUDY    14   5  67 NE12G18   30.24R WCI   0
RICE LAKE      CLOUDY    16   7  69 NE13      30.26S WCI   2
CHETEK         CLOUDY    15   6  66 NE6       30.24S WCI   7
LADYSMITH      CLOUDY    14   5  66 NE13      30.26F WCI   0
EAU CLAIRE     CLOUDY    18   8  65 NE15      30.20F WCI   4
MENOMONIE      CLOUDY    19  10  66 NE13      30.22R WCI   6
NEW RICHMOND   CLOUDY    17   9  70 NE14      30.23S WCI   3
OSCEOLA        CLOUDY    18   9  68 NE12G18   30.28S WCI   5
$$

WIZ003>005-009-010-017-018-010800-
NORTH CENTRAL WISCONSIN

CITY           SKY/WX    TMP DP  RH WIND       PRES   REMARKS
MANITOWISH WTR CLOUDY     4  -3  74 NE7       30.28R WCI  -8
ARBOR VITAE    CLOUDY     8   2  77 NE6       30.27R WCI  -2
WOODRUFF       CLOUDY     8   2  77 NE6       30.27R WCI  -2
RHINELANDER    CLOUDY     7  -1  70 NE9       30.26R WCI  -7
EAGLE RIVER    CLOUDY     6  -2  70 E10       30.27R WCI  -9
LAND O LAKES   CLOUDY     5   0  79 NE5       30.29R WCI  -4
PHILLIPS       CLOUDY     9   2  72 NE13G18   30.24F WCI  -6
TOMAHAWK       CLOUDY    10   2  71 NE9       30.26R WCI  -3
MEDFORD        CLOUDY    13   6  72 NE14      30.20S WCI  -2
MERRILL        CLOUDY    13   5  70 NE9G17    30.24F WCI   1
$$

WIZ029-030-035-036-043>047-010800-
CENTRAL WISCONSIN

CITY           SKY/WX    TMP DP  RH WIND       PRES   REMARKS
WAUSAU         CLOUDY    15   6  67 NE7       30.22S WCI   5
MOSINEE        CLOUDY    18  10  73 NE17      30.22F WCI   2
MARSHFIELD     CLOUDY    18  10  71 NE17      30.17F WCI   3
STEVENS POINT  CLOUDY    16  10  76 E15G21    30.22F WCI   1
WAUPACA        LGT SNOW  19  12  74 NE8       30.26S WCI   8
WAUTOMA        LGT SNOW  18  14  84 NE12      30.22F FOG     WCI   6
WISC RAPIDS    LGT SNOW  19  14  81 E12       30.21S WCI   7
CAMP DOUGLAS   LGT SNOW  25  25 100 E7        30.15S FOG     WCI  17
$$

WIZ011>013-019>022-031-037>040-048>050-010800-
NORTHEAST WISCONSIN

CITY           SKY/WX    TMP DP  RH WIND       PRES   REMARKS
ANTIGO         CLOUDY    10   5  79 NE15      30.24S WCI  -6
SHAWANO        CLOUDY    15   4  60 NE10G18   30.30F WCI   3
OCONTO         CLOUDY    13   4  66 MISG      30.32S
STURGEON BAY   CLOUDY    12   5  73 N17       30.31S WCI  -5
GREEN BAY      CLOUDY    15   6  67 NE15      30.30S WCI   0
MANITOWOC      FLURRIES  18  12  77 N12         N/A  WCI   5
APPLETON       CLOUDY    16   7  67 NE15G29   30.25F WCI   1
CLINTONVILLE   CLOUDY    16   5  62 NE13      30.29S WCI   2
OSHKOSH        LGT SNOW  17  11  77 NE15G26   30.23F WCI   2
$$

WIZ032>034-041-042-053>061-010800-
SOUTHWEST WISCONSIN

CITY           SKY/WX    TMP DP  RH WIND       PRES   REMARKS
LA CROSSE      LGT SNOW  27  23  85 VRB6      30.14S FOG     WCI  20
SPARTA         LGT SNOW  26  22  87 E8        30.15S WCI  17
VIROQUA        CLOUDY    24  24 100 E16G22    30.08S WCI  11
BOSCOBEL       LGT SNOW  28  23  81 NE9G16    30.10F WCI  19
PRAIRIE DU CHI LGT SNOW  28  25  87 E8        30.07F WCI  20
PLATTEVILLE    CLOUDY    28  27  95 NE14      30.04F VSB 1   WCI  17
$$

WIZ056-057-062-063-064-067-068-010800-
SOUTH CENTRAL WISCONSIN

CITY           SKY/WX    TMP DP  RH WIND       PRES   REMARKS
REEDSBURG      LGT SNOW  24  22  93 E9G16     30.12F VSB 1   WCI  14
BARABOO/DELLS  SNOW      24  22  91 E12       30.12F VSB 1/2 WCI  13
LONE ROCK      LGT SNOW  26  22  84 E16       30.12F FOG     WCI  14
MINERAL POINT  LGT SNOW  28  27  93 E15       30.06F VSB 1   WCI  17
MADISON        LGT SNOW  26  22  84 E16       30.12F FOG     WCI  14
MIDDLETON      CLOUDY    28  26  92 E13       30.12F WCI  17
WATERTOWN      LGT SNOW  26  25  97 NE12G17   30.14F WCI  15
MONROE         LGT SNOW  28  28 100 NE10G18   30.07F VSB 1   WCI  19
JANESVILLE     LGT SNOW  30  30 100 E8        30.10F WCI  23
$$

WIZ051-052-058>065-066-070>072-010800-
SOUTHEAST WISCONSIN

CITY           SKY/WX    TMP DP  RH WIND       PRES   REMARKS
MILWAUKEE      LGT SNOW  28  25  88 NE15      30.17F VSB 1   WCI  16
WAUKESHA       LGT SNOW  27  27 100 NE15      30.15F WCI  15
MILWAUKEE/TIMM LGT SNOW  28  25  86 NE13G21   30.18F WCI  18
RACINE         LGT SNOW  29  26  89 NE14      30.16F FOG     WCI  18
BURLINGTON     LGT SNOW  28  26  96 NE12      30.13F WCI  17
KENOSHA        LGT SNOW  29  27  92 NE15      30.14F FOG     WCI  18
FOND DU LAC    LGT SNOW  20  14  77 NE16G28   30.22F WCI   6
SHEBOYGAN      CLOUDY    23  17  78 NE18      30.21F WCI   9
WEST BEND      LGT SNOW  25  21  86 NE17      30.18F WCI  11
JUNEAU         LGT SNOW  23  21  91 NE12      30.17F WCI  11
$$

LSZ147-162-010800-
LAKE SUPERIOR

STATION/POSITION TIME  TEMP    WIND        PRES    WAVE
                       AIR SEA DIR/SP/G            HT/PER
                 (UTC) (F)     (DEG/KT/KT) (MB)    (FT/S)
DEVILS ISLAND    0700   12      50/ 21/ 25 1030.8F
PORT WING        0600   15      70/ 13/ 18 1028.1S
SAXON HARBOR     0600   14      70/  7/ 10 1028.1R
$$

LMZ867-665-643>646-010800-
LAKE MICHIGAN

STATION/POSITION TIME  TEMP    WIND        PRES    WAVE
                       AIR SEA DIR/SP/G            HT/PER
                 (UTC) (F)     (DEG/KT/KT) (MB)    (FT/S)
NORTHPORT PIER   0627   15     360/ 16/ 21 1026.4R
SISTER BAY       0628   14      10/  9/ 13   N/A
KEWAUNEE LAKESHO 0700   15     360/ 11/ 14 1024.7R
SHEBOYGAN LAKESH 0700   25      30/ 26/ 28 1024.4F
PORT WASHINGTON  0640   28      50/ 17/ 24 1023.4F
MILWAUKEE LAKESH 0700   29      50/ 19/ 23   N/A
KENOSHA   LAKESH 0700   30      60/ 17/ 21 1020.7F
$$

TC  - TEMPERATURE IN CELSIUS
VSB - VISIBILITY IN STATUTE MILES
WCI - WIND CHILL INDEX
HX  - HEAT INDEX




USA.gov is the U.S. government's official web portal to all federal, state and local government web resources and services.